Wind_Speed
33 33 33 33 32 32 31 31 31 31 31 31 31 31 31 32 32 32 31 31 31 31 32 31 32 32 32 32 32 32 32 33 33 34 34 35 36 36 37 37 37 37 37
35 35 35 34 35 35 34 34 34 33 33 34 33 33 33 33 33 33 33 33 33 33 34 34 34 34 35 34 34 34 35 35 35 35 36 37 38 38 39 39 39 39 39
38 37 37 37 37 37 36 36 36 36 36 36 36 35 34 34 34 35 35 35 36 37 37 36 36 37 36 36 36 36 37 37 37 37 38 39 39 40 40 40 40 40 40
40 40 39 39 39 38 38 38 38 37 38 38 38 38 37 37 37 37 37 37 38 38 39 38 38 38 38 37 37 38 38 39 40 40 40 41 41 41 41 41 41 41 41
42 42 41 41 40 40 40 40 40 40 40 40 40 39 39 39 39 39 38 38 39 39 39 39 40 40 39 39 39 39 40 41 42 42 42 42 41 41 42 42 42 42 43
44 44 43 43 42 42 42 42 42 42 42 42 41 41 41 40 41 41 41 40 40 40 40 39 40 41 41 41 41 41 41 42 43 43 42 43 43 42 43 43 43 44 44
45 45 44 44 45 44 45 44 44 44 44 44 44 44 44 43 43 43 42 42 41 41 42 41 40 41 42 43 44 44 44 45 44 44 44 44 44 44 45 45 45 45 45
45 45 45 44 45 45 45 45 44 44 45 45 45 46 46 45 45 44 44 43 43 43 43 43 42 42 43 44 45 46 47 47 46 46 46 45 46 45 45 46 46 46 46
45 46 46 46 46 47 46 46 46 46 46 46 46 46 46 45 44 44 44 44 44 43 44 45 45 45 44 45 46 47 47 48 48 48 48 47 47 46 46 47 47 46 46
45 46 47 47 47 47 47 47 47 47 47 46 46 46 46 46 46 45 44 44 44 45 46 47 47 47 47 47 47 48 48 48 48 49 49 48 48 48 47 46 46 46 46
44 45 46 46 47 47 47 48 48 47 46 46 46 46 46 47 47 47 45 45 46 46 46 47 48 49 49 48 48 48 49 49 49 49 49 49 48 47 47 47 47 47 47
46 46 45 45 46 47 46 45 46 46 46 46 46 46 47 47 47 47 47 46 47 47 48 49 49 49 49 49 49 49 49 49 49 49 48 47 47 47 47 47 47 47 46
45 46 46 46 46 46 45 46 46 47 46 46 46 47 47 47 47 47 48 48 48 48 49 49 49 49 49 49 49 49 50 50 49 49 48 47 47 47 47 46 46 45 44
44 46 47 47 48 48 48 48 48 48 48 47 47 47 48 48 48 49 49 49 49 49 49 49 49 49 50 50 49 49 50 50 49 48 49 49 48 47 46 45 44 44 43
44 45 46 47 48 48 48 48 47 47 47 47 48 48 49 49 49 49 50 50 50 49 49 49 49 50 50 50 50 50 50 50 49 49 48 49 48 47 46 45 43 41 40
43 44 44 44 46 47 47 48 48 47 48 48 48 49 49 49 50 50 51 50 51 51 51 50 50 50 51 50 51 51 50 50 49 49 49 48 47 47 45 44 43 41 40
45 45 46 46 46 47 48 49 49 49 48 48 48 49 50 50 50 50 50 51 51 52 51 50 50 50 50 50 50 50 50 50 49 48 48 48 47 46 45 44 42 42 41
45 46 47 48 48 48 48 48 49 49 49 49 49 49 49 49 49 49 49 49 50 51 50 48 48 49 49 49 50 50 50 49 48 47 47 47 46 45 44 42 42 42 42
44 46 47 48 48 48 48 49 48 49 49 50 50 49 48 47 47 48 47 47 48 48 48 48 47 47 47 47 48 49 49 49 48 47 46 45 45 44 43 42 42 42 42
43 45 47 48 48 48 48 48 48 48 49 49 49 48 48 48 47 47 47 47 47 47 47 46 45 45 44 45 46 46 46 46 46 45 44 43 43 42 41 41 40 40 40
43 43 45 46 47 48 48 48 48 47 47 46 46 46 46 46 46 46 47 47 47 47 46 45 44 42 43 43 43 43 42 42 41 40 40 40 40 39 38 38 39 39 39
42 42 43 44 44 45 45 46 46 46 45 45 44 44 44 45 46 46 46 46 46 45 44 43 42 41 41 41 40 39 38 38 37 36 37 37 37 36 36 37 38 37 37
39 39 39 40 42 42 43 43 43 42 42 42 42 42 42 43 44 44 44 44 44 44 43 42 41 39 38 38 38 37 37 36 35 34 35 34 34 34 34 35 35 34 33
37 36 36 36 37 37 37 38 38 38 38 38 39 39 39 40 41 42 43 43 43 41 40 38 37 36 35 35 35 34 33 33 32 33 33 32 32 32 32 33 32 31 30
34 34 33 33 33 33 33 34 35 35 36 36 37 37 37 37 38 40 39 39 39 38 37 35 34 34 34 33 32 32 31 31 30 30 30 29 28 29 29 29 28 28 26
29 29 29 29 30 30 30 31 31 32 33 34 35 35 35 36 36 35 34 34 34 34 34 33 33 32 31 31 31 31 31 30 29 28 28 27 26 26 25 25 26 24 24
Wind_Direction
256 258 258 259 260 261 261 263 264 264 265 266 267 268 268 269 269 269 271 273 273 274 275 277 278 279 281 282 283 283 284 284 284 285 287 288 288 289 289 290 289 289 289
256 258 258 259 262 263 262 262 263 264 265 265 266 268 269 270 271 270 271 272 273 274 275 276 278 281 281 282 282 282 283 285 285 286 287 288 288 288 289 289 289 289 288
256 258 259 259 261 261 261 263 264 264 265 265 266 267 268 270 271 272 273 273 274 276 276 277 279 281 281 280 280 282 283 284 285 286 287 288 288 288 288 287 287 287 286
256 258 259 259 260 260 261 263 264 265 265 265 266 266 267 269 271 273 274 275 276 277 277 277 278 279 279 279 280 281 282 283 285 286 287 288 288 288 287 287 287 286 285
255 258 260 260 261 261 262 263 265 266 266 266 266 267 268 269 271 273 274 275 276 277 277 278 278 278 278 279 280 281 282 283 285 285 286 287 288 287 287 287 287 286 286
256 258 260 260 261 262 262 263 265 265 266 266 266 267 269 271 272 273 274 276 277 276 276 277 278 278 279 279 280 281 282 283 284 284 285 286 287 287 287 286 286 287 286
257 258 260 261 261 262 263 264 265 265 266 267 267 267 268 270 272 273 274 275 276 276 276 276 278 279 279 279 280 280 282 282 282 283 284 285 286 286 286 286 286 285 285
257 258 259 260 261 262 263 263 265 265 266 267 268 268 269 270 271 272 273 274 275 276 276 277 278 279 280 279 280 280 281 281 282 282 284 284 285 285 285 285 285 285 286
257 258 259 260 261 261 262 263 265 265 266 267 268 270 270 270 270 271 272 273 274 275 276 277 278 278 280 280 280 280 281 281 281 282 283 284 284 285 285 285 285 285 286
256 257 259 259 260 261 262 264 265 266 266 267 268 270 271 272 273 273 272 273 273 274 275 276 277 278 279 280 281 280 281 282 282 283 284 284 285 285 285 284 284 284 284
255 257 258 258 259 261 263 265 265 266 266 267 268 270 271 272 273 274 273 272 273 274 275 276 277 278 279 279 280 281 281 282 283 284 284 285 285 285 285 285 286 285 284
256 256 259 259 260 261 263 264 264 266 266 268 268 270 271 272 273 274 274 274 274 274 275 276 276 277 278 279 280 281 282 282 283 284 285 284 284 285 285 285 285 285 284
258 259 260 261 261 261 263 265 266 266 267 268 269 269 270 271 272 273 273 274 274 275 275 275 277 277 278 279 278 279 281 282 282 282 283 284 284 284 284 284 285 284 284
259 260 260 261 262 262 264 266 266 266 267 268 269 269 270 271 272 273 274 275 275 275 276 277 277 278 278 278 279 280 281 282 282 282 282 283 283 283 284 284 283 283 282
261 262 262 263 263 263 265 267 267 267 267 268 269 269 270 270 271 272 274 276 276 276 276 276 277 278 278 278 278 279 280 280 280 281 282 283 283 283 283 283 283 282 280
262 263 264 266 265 265 265 266 267 267 267 268 268 269 270 271 272 273 274 275 276 276 277 277 277 278 278 278 278 279 279 279 279 280 281 282 283 284 283 282 282 280 281
262 263 264 266 267 266 267 266 266 266 267 268 268 269 270 271 273 274 274 275 275 276 278 278 278 277 277 278 278 278 279 279 280 280 280 280 281 282 281 280 281 281 281
264 264 264 265 266 267 267 267 267 266 267 268 269 270 271 272 273 273 274 275 275 277 278 278 278 278 278 277 277 278 278 279 280 279 279 279 280 280 279 280 280 281 281
267 267 266 266 266 266 267 267 267 267 268 268 269 270 271 273 273 273 274 275 276 277 278 279 279 279 278 277 277 278 278 279 279 279 278 279 279 278 278 279 280 280 280
270 269 267 266 266 266 267 267 268 269 269 270 270 271 272 272 272 273 273 275 276 277 278 279 280 279 277 277 278 278 278 279 278 279 278 278 277 277 277 279 280 280 281
271 271 269 268 268 267 268 268 269 269 270 271 271 271 272 272 273 274 275 275 276 278 279 279 279 278 278 279 280 279 279 279 279 279 279 278 278 277 277 279 279 280 280
271 272 271 269 268 268 268 268 269 269 269 270 271 271 271 272 274 275 276 276 277 278 278 277 278 278 279 279 278 279 279 278 277 278 278 278 279 278 277 279 280 282 281
271 271 271 270 268 268 268 269 269 270 270 270 271 271 272 274 274 274 274 274 275 276 276 276 276 278 279 279 279 278 278 277 277 277 278 278 278 279 278 280 281 282 282
270 271 271 272 271 270 269 269 269 270 270 269 270 272 274 275 274 274 274 274 275 275 275 275 276 278 278 278 278 278 277 277 277 279 280 279 280 280 278 280 280 279 280
271 271 272 273 271 270 270 271 271 270 269 269 270 273 275 276 276 276 275 274 274 274 273 273 275 276 277 277 276 276 277 277 279 280 280 279 280 280 279 280 279 279 279
272 271 271 272 271 271 271 271 272 271 270 270 272 274 276 277 278 276 275 275 274 274 272 273 274 276 276 276 276 277 277 278 279 279 278 278 279 279 279 279 280 279 279
Height
5785 5787 5788 5789 5790 5792 5793 5794 5795 5796 5797 5797 5798 5798 5799 5799 5800 5800 5800 5800 5800 5799 5799 5799 5798 5798 5797 5796 5795 5794 5792 5791 5790 5788 5786 5785 5783 5781 5779 5777 5774 5772 5769
5777 5779 5780 5782 5783 5784 5786 5787 5788 5788 5789 5790 5791 5791 5792 5792 5792 5792 5793 5792 5792 5792 5792 5791 5790 5790 5789 5788 5787 5786 5785 5783 5782 5780 5778 5776 5774 5772 5770 5768 5765 5763 5760
5769 5770 5772 5774 5775 5776 5777 5778 5779 5780 5781 5782 5783 5784 5784 5784 5785 5784 5785 5784 5784 5784 5783 5783 5782 5781 5780 5779 5778 5777 5776 5775 5773 5771 5769 5767 5765 5763 5760 5758 5755 5753 5750
5759 5761 5763 5765 5766 5767 5768 5770 5771 5772 5772 5773 5774 5775 5776 5776 5776 5776 5776 5776 5775 5775 5774 5774 5773 5772 5771 5770 5769 5768 5767 5765 5764 5762 5760 5758 5755 5753 5750 5748 5745 5742 5740
5750 5752 5753 5755 5756 5758 5759 5761 5762 5762 5763 5764 5765 5766 5767 5767 5768 5767 5767 5767 5766 5766 5765 5765 5764 5763 5762 5761 5760 5759 5757 5756 5754 5752 5750 5747 5745 5742 5740 5737 5734 5732 5729
5740 5742 5743 5745 5747 5748 5750 5751 5752 5753 5753 5754 5755 5756 5757 5758 5758 5758 5758 5757 5757 5756 5756 5755 5754 5754 5753 5752 5750 5749 5747 5745 5743 5741 5739 5737 5734 5732 5729 5727 5724 5721 5718
5730 5732 5733 5735 5737 5738 5739 5740 5741 5743 5743 5744 5746 5747 5747 5748 5748 5748 5748 5747 5747 5746 5746 5745 5744 5743 5742 5741 5740 5738 5736 5734 5733 5731 5729 5726 5724 5721 5718 5715 5713 5710 5707
5719 5721 5723 5724 5726 5727 5728 5730 5731 5732 5733 5734 5735 5735 5737 5739 5738 5738 5737 5737 5736 5736 5735 5734 5734 5733 5731 5730 5729 5727 5725 5723 5721 5719 5717 5715 5712 5710 5706 5704 5701 5698 5695
5708 5710 5712 5713 5715 5716 5717 5719 5720 5721 5722 5723 5723 5724 5725 5726 5727 5727 5726 5726 5725 5725 5724 5724 5723 5722 5720 5719 5717 5716 5713 5711 5710 5707 5705 5703 5700 5698 5695 5692 5689 5686 5683
5698 5699 5700 5702 5703 5705 5706 5707 5708 5709 5710 5711 5712 5712 5713 5713 5713 5715 5716 5715 5714 5713 5713 5712 5711 5710 5709 5707 5705 5703 5701 5699 5697 5695 5693 5690 5688 5685 5682 5679 5677 5674 5671
5686 5688 5689 5690 5692 5693 5695 5695 5696 5697 5699 5700 5701 5701 5701 5701 5701 5701 5703 5703 5702 5701 5700 5699 5699 5697 5696 5694 5693 5691 5689 5687 5685 5683 5680 5678 5676 5673 5670 5668 5665 5662 5659
5675 5677 5678 5679 5680 5682 5683 5684 5685 5686 5687 5688 5689 5689 5689 5690 5690 5689 5689 5690 5689 5689 5688 5687 5686 5685 5683 5681 5680 5678 5676 5674 5672 5670 5668 5666 5664 5661 5659 5656 5653 5650 5646
5664 5666 5667 5668 5669 5670 5671 5672 5673 5674 5675 5675 5676 5677 5677 5677 5677 5677 5676 5676 5676 5676 5675 5674 5673 5672 5670 5669 5667 5665 5663 5661 5660 5657 5655 5653 5651 5649 5647 5644 5641 5637 5634
5653 5654 5655 5656 5657 5658 5659 5660 5660 5661 5662 5663 5664 5664 5664 5665 5665 5664 5664 5663 5663 5664 5663 5662 5660 5658 5657 5655 5654 5652 5650 5648 5646 5645 5643 5641 5639 5637 5634 5631 5628 5625 5623
5640 5642 5642 5643 5644 5645 5646 5647 5648 5649 5650 5650 5651 5651 5651 5652 5651 5651 5650 5650 5650 5650 5651 5650 5648 5646 5643 5642 5640 5639 5637 5635 5633 5632 5630 5628 5626 5624 5622 5619 5616 5614 5612
5629 5630 5631 5631 5632 5633 5633 5634 5635 5636 5637 5638 5638 5638 5638 5638 5638 5637 5637 5636 5635 5635 5636 5636 5634 5632 5629 5628 5627 5625 5624 5622 5620 5619 5617 5615 5613 5611 5609 5607 5605 5603 5601
5617 5618 5619 5620 5620 5620 5621 5622 5623 5623 5624 5624 5625 5625 5625 5624 5624 5624 5623 5622 5621 5620 5620 5622 5620 5618 5615 5614 5612 5611 5610 5608 5607 5605 5604 5602 5600 5599 5597 5595 5593 5591 5589
5605 5606 5606 5607 5608 5608 5608 5609 5609 5610 5611 5612 5612 5612 5612 5611 5611 5610 5609 5608 5608 5606 5605 5606 5605 5604 5602 5600 5598 5597 5596 5595 5593 5592 5590 5589 5588 5586 5584 5583 5581 5580 5578
5593 5593 5594 5595 5595 5595 5596 5596 5597 5597 5598 5598 5598 5598 5598 5598 5597 5597 5596 5595 5594 5593 5592 5591 5591 5589 5588 5586 5584 5583 5582 5581 5580 5578 5577 5576 5575 5574 5572 5571 5569 5568 5567
5580 5581 5581 5582 5582 5583 5583 5583 5583 5584 5584 5585 5585 5585 5585 5584 5584 5584 5583 5583 5581 5580 5579 5577 5577 5576 5574 5572 5571 5570 5569 5567 5566 5565 5564 5564 5563 5561 5561 5560 5559 5557 5555
5568 5568 5568 5569 5569 5570 5570 5570 5571 5571 5572 5572 5572 5572 5571 5571 5571 5570 5570 5569 5568 5567 5566 5565 5564 5563 5562 5560 5559 5558 5557 5556 5555 5553 5553 5552 5551 5551 5550 5549 5547 5546 5545
5556 5556 5556 5556 5557 5557 5557 5557 5558 5559 5560 5560 5560 5560 5559 5559 5558 5557 5557 5556 5555 5554 5553 5552 5552 5551 5550 5548 5547 5546 5545 5545 5545 5544 5542 5542 5541 5540 5539 5538 5537 5536 5534
5544 5544 5544 5544 5544 5544 5544 5545 5545 5546 5547 5547 5547 5547 5547 5546 5545 5544 5544 5543 5543 5541 5541 5540 5540 5539 5538 5538 5537 5537 5535 5534 5534 5534 5533 5533 5531 5530 5529 5528 5527 5525 5524
5532 5533 5533 5533 5533 5533 5533 5533 5534 5535 5535 5536 5536 5536 5535 5534 5533 5532 5531 5531 5530 5530 5529 5529 5529 5529 5528 5527 5527 5526 5526 5525 5525 5524 5523 5523 5522 5521 5520 5519 5518 5516 5515
5522 5522 5522 5523 5523 5523 5523 5523 5524 5524 5525 5526 5525 5525 5524 5523 5521 5520 5519 5519 5519 5519 5518 5518 5518 5518 5518 5517 5517 5517 5517 5516 5516 5516 5515 5515 5514 5513 5512 5511 5509 5508 5507
5513 5513 5513 5514 5514 5514 5514 5514 5514 5515 5515 5516 5515 5514 5513 5512 5511 5509 5509 5508 5509 5508 5508 5508 5508 5509 5509 5509 5509 5508 5508 5507 5507 5508 5507 5506 5506 5504 5504 5503 5502 5501 5500